Home > Weather > Kempten > Past weeks

Flag for Germany Weather for the Past 2 Weeks in Kempten, Bavaria, Germany

Now
41 °F

Quite cool.


Feels Like: 32 °F
Forecast: 35 / 42 °F
Wind: 17 mph from Southwest

Location: Altenstadt Airport

Current Time: Feb 13, 2016 at 11:27:22 PM

Latest Report: Feb 13, 2016 at 10:20 PM


Visibility: N/A

Pressure: 29.21 "Hg (26.89 "Hg at 673m altitude)

Humidity: 76%

Dew point: 34 °F

Location of KemptenLocation

Historic Weather in Kempten — Graph

°F

Kempten Temperature Yesterday

Maximum temperature yesterday: 41 °F (at 3:20 PM)
Minimum temperature yesterday: 25 °F (at 12:20 AM)
Average temperature yesterday: 32 °F

High & Low Weather Summary for the Past Weeks

 TemperatureHumidityPressure
High55 °F (Feb 6, 2:20 PM)100% (Jan 31, 3:20 AM)30.36 "Hg (Jan 31, 3:20 AM)
Low25 °F (Feb 11, 10:20 PM)31% (Feb 7, 1:20 PM)29.21 "Hg (Feb 13, 4:20 PM)
Average38 °F77%29.87 "Hg
* Reported Jan 29 9:20 PM — Feb 13 9:20 PM, Kempten, Weather by CustomWeather, © 2016

Note: Actual official high and low records may vary slightly from our data, if they occured in-between our weather recording intervals... More about our weather records

Advertising

Kempten Weather History for the Previous 24 Hours

 ConditionsComfort  
Time TempWeatherWind HumidityBarometerVisibility
9:20 PM
Sat, Feb 13
41 °FQuite cool.18 mph76%29.21 "HgN/A
8:20 PM39 °FChilly.12 mph81%29.21 "HgN/A
7:20 PM39 °FChilly.6 mph81%29.21 "HgN/A
6:20 PM39 °FChilly.6 mph81%29.21 "HgN/A
5:20 PM39 °FChilly.5 mph81%29.21 "HgN/A
4:20 PM39 °FChilly.3 mph81%29.21 "HgN/A
3:20 PM41 °FQuite cool.5 mph70%29.24 "HgN/A
2:20 PM43 °FQuite cool.13 mph66%29.27 "HgN/A
1:20 PM43 °FQuite cool.13 mph66%29.27 "HgN/A
12:20 PM43 °FQuite cool.14 mph71%29.30 "HgN/A
11:20 AM39 °FChilly.13 mph81%29.33 "HgN/A
10:20 AM37 °FChilly.14 mph87%29.33 "HgN/A
9:20 AM36 °FChilly.14 mph93%29.36 "HgN/A
8:20 AM36 °FChilly.14 mph87%29.36 "HgN/A
7:20 AM34 °FChilly.12 mph93%29.36 "HgN/A
6:20 AM34 °FChilly.15 mph93%29.33 "HgN/A
5:20 AM36 °FChilly.13 mph87%29.33 "HgN/A
4:20 AM32 °FChilly.6 mph87%29.33 "HgN/A
3:20 AM32 °FChilly.2 mph87%29.30 "HgN/A
2:20 AM32 °FChilly.5 mph87%29.30 "HgN/A
1:20 AM32 °FChilly.5 mph87%29.33 "HgN/A
12:20 AM32 °FChilly.5 mph87%29.33 "HgN/A
11:20 PM
Fri, Feb 12
34 °FChilly.2 mph81%29.33 "HgN/A
Weather by CustomWeather, © 2016

See weather overviewHow to use our weather pages